Location: STAR School
(35.3054°N, 111.2976°W)
Time: 04:44:14
(UTC-07:00)

Transit 2A Rocket - Pass Details

Date: 27 May 2019
Orbit: 586 x 917 km, 66.7° (Epoch: 16 June)

Event Time Altitude Azimuth Distance (km) Brightness Sun altitude
Rises 00:18:57 0° 351° (N) 3,395 9.4 -33.4°
Reaches altitude 10° 00:23:35 10° 25° (NNE) 2,368 8.2 -33.4°
Maximum altitude 00:25:12 11° 42° (NE) 2,244 7.9 -33.4°
Drops below altitude 10° 00:26:48 10° 60° (ENE) 2,296 7.8 -33.4°
Enters shadow 00:28:36 - 78° (ENE) 2,550 7.8 -33.4°
